Location: Unspecified
(39.2482°N, 0.0000°E)
Time: 08:16:44
(UTC+00:00)

O/OREOS (USA 219) - Visible Passes

Search period start: 04 April 2026 00:00
Search period end: 14 April 2026 00:00
Orbit: 576 x 599 km, 72.0° (Epoch: 28 March)

Date Brightness Start Highest point End Pass type
(mag) Time Alt. Az. Time Alt. Az. Time Alt. Az.
4 Apr ? 04:35:57 10° SSW 04:40:17 85° ESE 04:44:39 10° NNE visible
5 Apr ? 03:08:15 10° ESE 03:09:42 11° E 03:11:07 10° ENE visible
5 Apr ? 04:43:16 10° SW 04:47:32 57° WNW 04:51:50 10° NNE visible
6 Apr ? 03:14:25 13° SE 03:16:43 19° E 03:19:48 10° NE visible
6 Apr ? 04:50:57 10° SW 04:54:50 35° WNW 04:58:50 10° N visible
7 Apr ? 03:22:10 24° SE 03:23:47 31° ESE 03:27:37 10° NE visible
7 Apr ? 04:58:46 10° WSW 05:02:12 22° WNW 05:05:38 10° N visible
8 Apr ? 03:29:47 40° SSE 03:30:54 52° ESE 03:35:08 10° NNE visible
8 Apr ? 05:07:10 10° W 05:09:38 15° NW 05:12:06 10° NNW visible
9 Apr ? 03:37:19 60° SSW 03:38:04 89° ESE 03:42:26 10° NNE visible
10 Apr ? 02:08:16 12° E 02:08:16 12° E 02:09:08 10° ENE visible
10 Apr ? 03:44:45 50° W 03:45:18 54° WNW 03:49:34 10° NNE visible
11 Apr ? 02:15:38 18° E 02:15:38 18° E 02:17:36 10° NE visible
11 Apr ? 03:52:08 32° WNW 03:52:35 33° WNW 03:56:32 10° N visible
12 Apr ? 02:22:57 26° ENE 02:22:57 26° ENE 02:25:21 10° NE visible
12 Apr ? 03:59:26 21° WNW 03:59:54 21° WNW 04:03:16 10° N visible
13 Apr ? 02:30:12 33° NE 02:30:12 33° NE 02:32:48 10° NNE visible
13 Apr ? 04:06:41 14° WNW 04:07:19 14° NW 04:09:37 10° NNW visible
